Weather History for Sussex, NJ

Change the Weather History Date:

Thursday, February 7, 2013

  Actual Average Record
Temperature  
Mean Temperature 22 °F -  
Max Temperature 30 °F 32 °F 53 °F (2005)
Min Temperature 15 °F 11 °F -14 °F (1966)
Degree Days  
Heating Degree Days 42    
Moisture  
Dew Point 11 °F    
Average Humidity 62    
Maximum Humidity 77    
Minimum Humidity 45    
Precipitation  
Precipitation 0.00 in - - ()
Sea Level Pressure  
Sea Level Pressure 30.42 in    
Wind  
Wind Speed 1 mph (NE)    
Max Wind Speed 7 mph    
Max Gust Speed -    
Visibility 10 miles    
Events      
Averages and records for this station are not official NWS values.
T = Trace of Precipitation, MM = Missing Value Source: NWS Daily Summary

Daily Weather History Graph

Daily Weather History Graph

Search for Another Location

Airport:

Trip Planner

Search our weather history database for the weather conditions in past years. The results will help you decide how hot, cold, wet, or windy it might be!

Date:

Astronomy

Feb. 07, 2013 Rise Set
Actual Time 7:02 AM EST 5:23 PM EST
Civil Twilight 6:34 AM EST 5:51 PM EST
Nautical Twilight 6:01 AM EST 6:24 PM EST
Astronomical Twilight 5:29 AM EST 6:56 PM EST
Moon 4:41 AM EST (2/7) 2:43 PM EST (2/7)
Length of Visible Light 11h 17m
Length of Day
10h 20m
Waning Crescent, 9% of the Moon is Illuminated
Feb 7
Waning Crescent
Feb 10
New
Feb 17
First Quarter
Feb 25
Full
Mar 4
Last Quarter

Hourly Weather History & Observations

Time (EST) Temp. Windchill Dew Point Humidity Pressure Visibility Wind Dir Wind Speed Gust Speed Precip Events Conditions
12:53 AM 18.0 °F - 9.0 °F 68% 30.35 in 10.0 mi Calm Calm - N/A   Clear
1:53 AM 16.0 °F - 10.0 °F 77% 30.38 in 10.0 mi Calm Calm - N/A   Clear
2:53 AM 15.1 °F - 9.0 °F 77% 30.39 in 10.0 mi Calm Calm - N/A   Clear
3:53 AM 15.1 °F - 9.0 °F 77% 30.40 in 10.0 mi Calm Calm - N/A   Clear
4:53 AM 15.1 °F 9.4 °F 9.0 °F 77% 30.42 in 9.0 mi SSE 3.5 mph - N/A   Clear
5:53 AM 16.0 °F - 9.0 °F 74% 30.43 in 10.0 mi Calm Calm - N/A   Clear
6:53 AM 16.0 °F - 9.0 °F 74% 30.44 in 10.0 mi Calm Calm - N/A   Clear
7:53 AM 17.1 °F - 10.9 °F 77% 30.48 in 10.0 mi Calm Calm - N/A   Scattered Clouds
8:53 AM 19.9 °F - 10.9 °F 68% 30.49 in 10.0 mi Calm Calm - N/A   Clear
9:53 AM 23.0 °F - 10.0 °F 58% 30.50 in 10.0 mi Calm Calm - N/A   Clear
10:53 AM 24.1 °F - 9.0 °F 53% 30.49 in 10.0 mi Calm Calm - N/A   Mostly Cloudy
11:53 AM 26.1 °F 20.5 °F 10.9 °F 53% 30.47 in 10.0 mi NE 4.6 mph - N/A   Mostly Cloudy
12:53 PM 28.0 °F 24.2 °F 10.9 °F 49% 30.45 in 10.0 mi North 3.5 mph - N/A   Partly Cloudy
1:53 PM 28.9 °F 22.8 °F 12.9 °F 51% 30.43 in 10.0 mi NE 5.8 mph - N/A   Overcast
2:53 PM 30.0 °F 25.2 °F 10.9 °F 45% 30.42 in 10.0 mi NNE 4.6 mph - N/A   Clear
3:53 PM 30.0 °F 25.2 °F 12.0 °F 47% 30.40 in 10.0 mi NE 4.6 mph - N/A   Overcast
4:53 PM 30.0 °F - 12.0 °F 47% 30.39 in 10.0 mi Calm Calm - N/A   Overcast
5:53 PM 28.0 °F 24.2 °F 9.0 °F 45% 30.40 in 10.0 mi SE 3.5 mph - N/A   Partly Cloudy
6:53 PM 25.0 °F - 10.9 °F 55% 30.40 in 10.0 mi Calm Calm - N/A   Partly Cloudy
7:53 PM 23.0 °F - 15.1 °F 72% 30.40 in 10.0 mi Calm Calm - N/A   Overcast
8:53 PM 23.0 °F - 15.1 °F 72% 30.40 in 10.0 mi Calm Calm - N/A   Overcast
9:53 PM 25.0 °F - 15.1 °F 66% 30.39 in 10.0 mi Calm Calm - N/A   Overcast
10:53 PM 27.0 °F 20.5 °F 12.9 °F 56% 30.36 in 10.0 mi NNE 5.8 mph - N/A   Overcast
11:53 PM 27.0 °F 19.5 °F 14.0 °F 58% 30.32 in 10.0 mi NNE 6.9 mph - N/A   Overcast